Weather History for Langdon, ND

Change the Weather History Date:

Tuesday, November 20, 2012

  Actual Average (KDVL) Record (KDVL)
Temperature  
Mean Temperature 28 °F -  
Max Temperature 37 °F 31 °F 55 °F (1989)
Min Temperature 19 °F 16 °F -6 °F (1950)
Degree Days  
Heating Degree Days 37    
Moisture  
Dew Point 29 °F    
Average Humidity 89    
Maximum Humidity 100    
Minimum Humidity 75    
Precipitation  
Precipitation 0.00 in - - ()
Sea Level Pressure  
Sea Level Pressure 29.91 in    
Wind  
Wind Speed 14 mph (SSW)    
Max Wind Speed 21 mph    
Max Gust Speed 25 mph    
Visibility 10 miles    
Events      
Averages and records for this station are not official NWS values.
T = Trace of Precipitation, MM = Missing Value Source: NWS Daily Summary

Daily Weather History Graph

Daily Weather History Graph

Search for Another Location

Airport:

Trip Planner

Search our weather history database for the weather conditions in past years. The results will help you decide how hot, cold, wet, or windy it might be!

Date:

Astronomy

Nov. 20, 2012 Rise Set
Actual Time 7:50 AM CST 4:47 PM CST
Civil Twilight 7:15 AM CST 5:22 PM CST
Nautical Twilight 6:36 AM CST 6:01 PM CST
Astronomical Twilight 5:59 AM CST 6:38 PM CST
Moon 1:07 PM CST (11/20) No Moon Set
Length of Visible Light 10h 07m
Length of Day
8h 56m
First Quarter, 51% of the Moon is Illuminated
Nov 20
First Quarter
Nov 28
Full
Dec 6
Last Quarter
Dec 13
New
Dec 19
First Quarter

Hourly Weather History & Observations

Time (CST) Temp. Windchill Dew Point Humidity Pressure Visibility Wind Dir Wind Speed Gust Speed Precip Events Conditions
12:15 AM 21.2 °F 10.9 °F 21.2 °F 100% 30.09 in 9.0 mi South 9.2 mph - N/A   Clear
12:35 AM 19.4 °F 7.9 °F 19.4 °F 100% 30.09 in 10.0 mi SSW 10.4 mph - N/A   Clear
12:55 AM 19.4 °F 7.9 °F 19.4 °F 100% 30.09 in 10.0 mi SSW 10.4 mph - N/A   Clear
1:15 AM 19.4 °F 7.2 °F 19.4 °F 100% 30.09 in 10.0 mi SSW 11.5 mph - N/A   Clear
1:35 AM 19.4 °F 7.9 °F 19.4 °F 100% 30.09 in 7.0 mi SSW 10.4 mph - N/A   Clear
1:55 AM 19.4 °F 8.6 °F 19.4 °F 100% 30.08 in 5.0 mi South 9.2 mph - N/A   Clear
2:15 AM 23.0 °F 11.7 °F 23.0 °F 100% 30.07 in 7.0 mi South 11.5 mph - N/A   Clear
2:35 AM 23.0 °F 11.1 °F 23.0 °F 100% 30.06 in 8.0 mi South 12.7 mph - N/A   Clear
6:15 AM 28.4 °F 16.2 °F 24.8 °F 86% 30.01 in 10.0 mi South 17.3 mph - N/A   Clear
6:35 AM 30.2 °F 18.5 °F 24.8 °F 80% 30.01 in 10.0 mi South 17.3 mph - N/A   Clear
6:55 AM 32.0 °F 20.5 °F 24.8 °F 75% 30.00 in 10.0 mi South 18.4 mph 24.2 mph N/A   Clear
7:15 AM 32.0 °F 20.8 °F 24.8 °F 75% 29.98 in 10.0 mi South 17.3 mph - N/A   Clear
7:35 AM 30.2 °F 18.5 °F 24.8 °F 80% 29.99 in 10.0 mi South 17.3 mph - N/A   Clear
7:55 AM 32.0 °F 20.8 °F 26.6 °F 80% 29.98 in 10.0 mi South 17.3 mph - N/A   Clear
8:15 AM 32.0 °F 20.5 °F 26.6 °F 80% 29.98 in 10.0 mi South 18.4 mph - N/A   Clear
8:35 AM 32.0 °F 20.5 °F 26.6 °F 80% 29.97 in 10.0 mi South 18.4 mph 23.0 mph N/A   Clear
8:55 AM 32.0 °F 20.8 °F 26.6 °F 80% 29.97 in 10.0 mi South 17.3 mph - N/A   Clear
9:15 AM 32.0 °F 21.6 °F 26.6 °F 80% 29.97 in 10.0 mi South 15.0 mph - N/A   Clear
9:35 AM 32.0 °F 20.8 °F 26.6 °F 80% 29.96 in 10.0 mi SSW 17.3 mph 23.0 mph N/A   Clear
9:55 AM 32.0 °F 20.8 °F 28.4 °F 87% 29.96 in 10.0 mi SSW 17.3 mph - N/A   Clear
10:15 AM 32.0 °F 20.8 °F 28.4 °F 87% 29.96 in 10.0 mi South 17.3 mph - N/A   Clear
10:35 AM 33.8 °F 23.2 °F 28.4 °F 81% 29.95 in 10.0 mi South 17.3 mph - N/A   Clear
10:55 AM 35.6 °F 24.5 °F 28.4 °F 75% 29.95 in 10.0 mi SSW 20.7 mph - N/A   Clear
11:15 AM 35.6 °F 24.8 °F 28.4 °F 75% 29.94 in 10.0 mi SSW 19.6 mph - N/A   Clear
11:35 AM 35.6 °F 25.2 °F 30.2 °F 81% 29.93 in 10.0 mi South 18.4 mph - N/A   Clear
11:55 AM 35.6 °F 24.5 °F 30.2 °F 81% 29.91 in 10.0 mi South 20.7 mph 25.3 mph N/A   Clear
12:15 PM 35.6 °F 24.8 °F 30.2 °F 81% 29.91 in 10.0 mi SSW 19.6 mph 23.0 mph N/A   Clear
12:35 PM 35.6 °F 24.5 °F 30.2 °F 81% 29.90 in 10.0 mi South 20.7 mph 25.3 mph N/A   Clear
12:55 PM 35.6 °F 24.5 °F 30.2 °F 81% 29.88 in 10.0 mi South 20.7 mph 25.3 mph N/A   Clear
1:15 PM 37.4 °F 27.2 °F 30.2 °F 75% 29.88 in 10.0 mi SSW 19.6 mph - N/A   Clear
1:35 PM 37.4 °F 27.5 °F 30.2 °F 75% 29.89 in 10.0 mi SSW 18.4 mph - N/A   Clear
1:55 PM 37.4 °F 27.2 °F 32.0 °F 81% 29.86 in 10.0 mi South 19.6 mph - N/A   Clear
2:15 PM 37.4 °F 27.5 °F 32.0 °F 81% 29.85 in 10.0 mi South 18.4 mph - N/A   Clear
2:35 PM 35.6 °F 26.2 °F 32.0 °F 87% 29.85 in 10.0 mi SSW 15.0 mph - N/A   Clear
2:55 PM 35.6 °F 27.5 °F 32.0 °F 87% 29.84 in 10.0 mi SSW 11.5 mph - N/A   Clear
3:15 PM 35.6 °F 26.2 °F 32.0 °F 87% 29.83 in 10.0 mi SSW 15.0 mph - N/A   Clear
3:35 PM 35.6 °F 27.1 °F 32.0 °F 87% 29.84 in 10.0 mi SW 12.7 mph - N/A   Clear
3:55 PM 35.6 °F 27.1 °F 32.0 °F 87% 29.85 in 10.0 mi SW 12.7 mph - N/A   Clear
4:15 PM 35.6 °F 27.5 °F 32.0 °F 87% 29.84 in 10.0 mi SSW 11.5 mph - N/A   Clear
4:35 PM 33.8 °F 24.8 °F 32.0 °F 93% 29.84 in 10.0 mi SSW 12.7 mph - N/A   Clear
4:55 PM 35.6 °F 26.6 °F 32.0 °F 87% 29.84 in 10.0 mi SSW 13.8 mph - N/A   Clear
5:15 PM 35.6 °F 27.1 °F 32.0 °F 87% 29.83 in 10.0 mi SSW 12.7 mph - N/A   Clear
5:35 PM 33.8 °F 25.8 °F 32.0 °F 93% 29.84 in 10.0 mi SSW 10.4 mph - N/A   Clear
5:55 PM 33.8 °F 24.8 °F 32.0 °F 93% 29.84 in 10.0 mi SSW 12.7 mph - N/A   Clear
6:15 PM 33.8 °F 24.3 °F 32.0 °F 93% 29.84 in 10.0 mi SSW 13.8 mph - N/A   Clear
6:55 PM 32.0 °F 24.2 °F 32.0 °F 100% 29.84 in 10.0 mi SW 9.2 mph - N/A   Clear
7:15 PM 32.0 °F 23.6 °F 32.0 °F 100% 29.82 in 10.0 mi SSW 10.4 mph - N/A   Clear
7:35 PM 32.0 °F 23.0 °F 32.0 °F 100% 29.81 in 10.0 mi SSW 11.5 mph - N/A   Clear
7:55 PM 32.0 °F 21.2 °F 32.0 °F 100% 29.81 in 10.0 mi SW 16.1 mph - N/A   Clear
8:15 PM 33.8 °F 23.5 °F 32.0 °F 93% 29.81 in 10.0 mi SW 16.1 mph - N/A   Clear
8:35 PM 32.0 °F 21.6 °F 32.0 °F 100% 29.82 in 10.0 mi WSW 15.0 mph - N/A   Clear
8:55 PM 33.8 °F 24.8 °F 33.8 °F 100% 29.81 in 10.0 mi WSW 12.7 mph - N/A   Clear
9:15 PM 32.0 °F 23.0 °F 32.0 °F 100% 29.82 in 10.0 mi WSW 11.5 mph - N/A   Clear
9:35 PM 32.0 °F 24.2 °F 32.0 °F 100% 29.83 in 10.0 mi WSW 9.2 mph - N/A   Clear
9:55 PM 32.0 °F 24.8 °F 32.0 °F 100% 29.83 in 10.0 mi WSW 8.1 mph - N/A   Clear
10:15 PM 32.0 °F 26.4 °F 32.0 °F 100% 29.83 in 10.0 mi WSW 5.8 mph - N/A   Clear
10:35 PM 32.0 °F 25.6 °F 32.0 °F 100% 29.83 in 10.0 mi WSW 6.9 mph - N/A   Clear
10:55 PM 32.0 °F 27.5 °F 32.0 °F 100% 29.83 in 10.0 mi WSW 4.6 mph - N/A   Clear
11:15 PM 32.0 °F 26.4 °F 32.0 °F 100% 29.82 in 10.0 mi SW 5.8 mph - N/A   Clear
11:35 PM 32.0 °F 24.8 °F 32.0 °F 100% 29.81 in 10.0 mi SSW 8.1 mph - N/A   Clear
11:55 PM 32.0 °F 23.6 °F 32.0 °F 100% 29.81 in 10.0 mi SW 10.4 mph - N/A   Clear